Home   Weather   Poznan   Past weeks

Flag for Poland Past Weather in Poznan, Poland — Yesterday and Last 2 Weeks

Now
43 °F

Light rain. Passing clouds.


Feels Like: 39 °F
Forecast: 38 / 53 °F
Wind: 6 mph from North

Location: Poznan Airport

Current Time: Apr 28, 2017 at 10:25:13 pm

Latest Report: Apr 28, 2017 at 9:30 pm


Visibility: N/A

Pressure: 29.89 "Hg

Humidity: 81%

Dew Point: 37 °F

Location of PoznanLocation

Past Weather in Poznan — Graph

°F

Poznan Temperature Yesterday

Maximum temperature yesterday: 52 °F (at 1:00 pm)
Minimum temperature yesterday: 32 °F (at 5:00 am)
Average temperature yesterday: 42 °F

High & Low Weather Summary for the Past Weeks

 TemperatureHumidityPressure
High59 °F (Apr 25, 11:00 am)100% (Apr 23, 1:00 am)30.54 "Hg (Apr 23, 1:00 am)
Low28 °F (Apr 19, 5:30 am)32% (Apr 19, 12:30 pm)29.56 "Hg (Apr 25, 8:30 am)
Average42 °F70%29.99 "Hg
* Reported Apr 13 9:00 pm — Apr 28 9:00 pm, Poznan, Weather by CustomWeather, © 2017

Note: Actual official high and low records may vary slightly from our data, if they occured in-between our weather recording intervals... More about our weather records

Advertising

Poznan Weather History for the Previous 24 Hours

Scroll right to see more
 ConditionsComfort  
Time TempWeatherWind HumidityBarometerVisibility
9:00 pm
Fri, Apr 28
43 °FLight rain. Passing clouds.7 mph81%29.89 "HgN/A
8:30 pm45 °FLight rain. Overcast.6 mph76%29.89 "HgN/A
8:00 pm45 °FLight rain. Passing clouds.5 mph76%29.89 "HgN/A
7:30 pm45 °FLight rain. Passing clouds.6 mph76%29.89 "HgN/A
7:00 pm45 °FLight rain. Clear.8 mph71%29.89 "HgN/A
6:30 pm45 °FLight rain. Clear.9 mph71%29.89 "HgN/A
6:00 pm45 °FPassing clouds.10 mph71%29.86 "HgN/A
5:30 pm45 °FPassing clouds.10 mph71%29.89 "HgN/A
5:00 pm46 °FPassing clouds.10 mph71%29.89 "HgN/A
4:30 pm46 °FPartly sunny.9 mph71%29.89 "HgN/A
4:00 pm46 °FPassing clouds.9 mph71%29.89 "HgN/A
3:30 pm46 °FScattered clouds.10 mph71%29.89 "HgN/A
3:00 pm46 °FScattered clouds.9 mph66%29.89 "HgN/A
2:30 pm46 °FPartly sunny.9 mph71%29.89 "HgN/A
2:00 pm46 °FPartly sunny.10 mph71%29.89 "HgN/A
1:30 pm46 °FPartly sunny.12 mph66%29.89 "HgN/A
1:00 pm46 °FPartly sunny.9 mph66%29.89 "HgN/A
12:30 pm46 °FPartly sunny.12 mph71%29.89 "HgN/A
12:00 pm46 °FPartly sunny.12 mph76%29.89 "HgN/A
11:30 am45 °FPartly sunny.10 mph76%29.92 "HgN/A
11:00 am45 °FLight rain. Partly sunny.12 mph76%29.92 "HgN/A
10:30 am45 °FLight rain. Overcast.10 mph81%29.92 "Hg5 mi
9:30 am45 °FLight rain. Overcast.7 mph76%29.92 "Hg5 mi
9:00 am43 °FLight rain. Partly sunny.3 mph87%29.92 "Hg5 mi
8:30 am43 °FLight rain. Partly sunny.5 mph81%29.92 "Hg5 mi
8:00 am41 °FLight rain. Partly sunny.5 mph93%29.92 "Hg4 mi
7:30 am41 °FLight rain. Fog.5 mph87%29.92 "Hg3 mi
7:00 am39 °FFog.1 mph93%29.92 "Hg3 mi
6:30 am39 °FFog.3 mph93%29.92 "Hg3 mi
6:00 am39 °FFog.5 mph93%29.92 "Hg3 mi
5:30 am37 °FFog.5 mph93%29.92 "Hg3 mi
5:00 am39 °FClear.3 mph87%29.92 "Hg4 mi
4:30 am39 °FClear.2 mph87%29.95 "Hg4 mi
4:00 am37 °FClear.2 mph93%29.95 "Hg4 mi
3:30 am39 °FClear.1 mph87%29.95 "Hg4 mi
3:00 am39 °FClear.3 mph87%29.95 "Hg5 mi
2:30 am39 °FClear.5 mph87%29.98 "Hg5 mi
2:00 am39 °FClear.3 mph87%29.98 "Hg6 mi
1:30 am37 °FClear.3 mph87%29.98 "Hg5 mi
1:00 am37 °FClear.5 mph87%29.98 "Hg4 mi
12:30 am37 °FClear.2 mph87%29.98 "Hg4 mi
12:00 am36 °FClear.3 mph87%29.98 "Hg4 mi
11:30 pm
Thu, Apr 27
36 °FClear.1 mph93%29.98 "Hg4 mi
11:00 pm37 °FClear.1 mph93%29.98 "Hg6 mi
10:30 pm37 °FClear.1 mph87%29.98 "Hg10 mi
10:00 pm37 °FClear.1 mph87%30.01 "Hg10 mi
Weather by CustomWeather, © 2017

See weather overviewHow to use our weather pages